CZ-6A DEB, 60840

Orbit data source: Space-Track

CZ-6A DEB, 60840 is space debris in LEO originally from a launch on Tue, 06 Aug 2024 UTC launched from the Taiyaun Space Center, China (TSC). Debris objects in space refer to the collection of defunct objects orbiting the Earth. Examples of debris include non-operational satellites, rocket bodies, and fragments generated from explosions, collisions, or faulty payload assembly.

Loading next visibility...
Identifier
60840, 2024-140HT
Orbit
LEO
Country
Flag of CNCN / PRC
Related business
Manufacturer
SAST
Mission
Spacecraft
Bus & Motor
Unknown
Mass
Unknown
Launch date (UTC)
2024-08-06 (2 years ago)
Launch vehicle
Unknown
Launch site
Taiyaun Space Center, China (TSC)
Object type
Payload
Rocket body
Debris
Shape & HBR
Unknown shape, 0.1 m
Radar Cross Section
Medium (>0.1 m² and <1 m²)

Expand to show TLE details & history
Last TLE update: 14 hours ago

TLE from 14 hours ago
0 CZ-6A DEB
1 60840U 24140HT  26171.26160102  .00006611  00000-0  88271-3 0  9997
2 60840  88.9891 267.0411 0118466 184.4353 175.5830 14.74604359 99244
Epoch: 2026-06-20T06:16Z
TLE epoch observation values (Epoch: 2026-06-20T06:16:42.328Z)
Latitude
-0.00002°
Longitude
-95.61403°
Altitude
732.533 km
Speed
7.444 km/s
True Right ascension
17h 48m 09s
True Declination
0° 00' 00"
Sunlit
Object was in full shadow at epoch
Visualization orbit readout
Latitude
Unknown
Longitude
Unknown
Altitude
Unknown
Speed
Unknown
Apparent Right ascension
Unknown
Apparent Declination
Unknown
Sunlit
N/A
Visualization observer readout
Local Sidereal Time
07:20:20
Azimuth
Unknown
Elevation
Unknown
Doppler factor
Unknown
Orbital elements
Apogee altitude
726.46 km
Perigee altitude
560.1 km
Semi-major axis
7,021.417 km
Eccentricity
0.01185
Inclination
88.9891°
RAAN
267.0411°
Arg. of periapsis
184.4353°
True anomaly
175.68603°
Mean anomaly
175.583°
Eccentric anomaly
175.63466°
Mean motion
3.68898 °/min
Orbital period
97.59 mins
BSTAR
0.00088271
Loading maneuver chart data...
Computing Atmospheric mass density...
Loading historical data...
Loading historical data...
Loading historical data...
Loading historical data...
Loading historical data...
Loading historical data...
Loading historical data...

Documentation

Showing up to 5 results
|